JILIN-01 GAOFEN 3J (46462 NORAD) Tracking and Keplerian Element Data

This shows tracking and keplerian element data for the satellite.

Feedback or suggestion? Click here.




ElementValue
Catalog46462
NameJILIN-01 GAOFEN 3J
Epoch Orbit2024
Epoch Day27.19627117
Epoch Year2021
RAAN86.4571
Inclination97.5193
Eccentricity0.0013404
Argument of Perigee183.8546
Mean Anonmoly262.4362
Mean Motion15.09553249
Decay Rate8E-07
L11 46462U 20065J 21027.19627117 .00000080 00000-0 88891-5 0 9998
L22 46462 97.5193 86.4571 0013404 183.8546 262.4362 15.09553249 20242

Live tracking and technical data element details for JILIN-01 GAOFEN 3J (NORAD 46462). JILIN-01 GAOFEN 3J can be tracked NOW for your location showing map with azimuth and elevation plus other details from your city location.

Track the satellite on the map from your city or location and see movement details for azimuth, elevation, latitude, longitude, range, height, and movement on the map or in text.







IsCatalogInMostPopularTable: catalog: 46462, numindb: 52
Update: records affected: 1



GetName: 46462 JILIN-01 GAOFEN 3J

Hit Count: updated at: Thu, 28 Jan 2021 11:42:42 GMT